Simultaneous Nadir Overpasses (SNOs) Predictions

Prediction of SNOs between GOES-16 and LANDSAT-8 Satellite Orbit:

Table of predicted SNOs for the next 14.0 days since TLE Epoch: 8/17/2019
Index Date Time (GOES-16) GOES-16 Lat,Lon LANDSAT-8 Lat,Lon Distance(km) Time Diff (sec)
1 08/18/2019 02:57:35 -0.01, -75.18 0.76, -71.71 395.01 80
2 08/18/2019 15:21:30 0.01, -75.21 0.37, -76.86 187.83 80
3 08/20/2019 15:06:40 0.01, -75.25 -0.30, -73.91 152.85 80
4 08/21/2019 03:30:44 -0.02, -75.24 -0.83, -79.10 438.36 80
5 08/22/2019 14:54:29 0.01, -75.29 -0.91, -70.95 493.86 80
6 08/23/2019 03:18:33 -0.02, -75.29 -0.22, -76.14 97.28 80
7 08/25/2019 03:03:43 -0.02, -75.33 0.46, -73.19 244.00 80
8 08/25/2019 15:27:38 0.02, -75.36 0.68, -78.34 338.64 80
9 08/27/2019 15:12:48 0.02, -75.41 0.00, -75.39 3.38 80
10 08/29/2019 15:00:37 0.02, -75.46 -0.61, -72.43 344.66 80
11 08/30/2019 03:24:40 -0.03, -75.46 -0.51, -77.62 246.02 80




NCC Satellite Simultaneous Nadir Overpasses (SNOs) Prediction Service
